Theta_e
304 306 309 309 308 311 313 314 314 312 307 308 309 309 309 307 304 305 304 303 302 301 298 295 295 295 295 296 297 297 296 295 294 294 294 294 295 293 292 291 291 291 290 290
304 307 309 307 307 309 310 312 313 310 305 306 309 309 308 308 307 306 306 304 302 299 298 296 295 295 295 296 296 296 295 294 294 294 293 293 293 292 291 290 290 289 289 289
309 311 307 305 306 307 309 311 312 312 306 305 306 312 311 308 307 306 302 304 301 300 299 297 296 296 295 295 295 294 294 293 293 292 292 292 291 290 290 290 290 289 288 288
307 309 307 306 307 306 311 308 308 310 309 316 307 322 317 310 305 300 301 300 299 299 298 297 296 295 295 294 294 293 293 292 291 292 291 291 292 293 292 290 289 288 287 287
308 307 309 311 308 307 311 305 308 308 311 311 310 313 316 304 306 304 300 299 299 298 298 297 296 295 294 293 292 292 291 291 290 290 290 290 290 290 289 288 288 288 287 286
309 305 308 310 309 307 306 307 307 308 311 314 315 313 318 315 311 306 301 299 298 297 296 295 294 293 293 292 291 291 290 290 289 289 289 289 289 289 289 288 288 287 287 286
309 309 306 305 308 306 308 310 313 313 313 316 308 311 316 310 303 302 302 300 298 296 296 296 295 293 293 292 291 290 290 290 289 288 288 288 288 288 288 287 287 287 287 286
312 311 307 306 309 309 310 312 316 318 316 314 302 312 314 303 296 293 298 299 297 296 296 296 295 293 293 291 291 290 290 290 289 288 288 287 286 287 287 286 286 286 286 286
313 313 306 306 305 307 309 313 311 306 301 310 308 306 303 299 297 295 295 297 297 296 295 294 291 291 291 290 289 289 288 288 288 287 287 286 285 285 285 285 284 285 285 285
313 313 306 305 304 304 308 307 311 313 313 317 315 308 314 301 301 297 296 298 297 295 293 292 290 289 288 287 286 285 286 286 286 286 285 285 285 284 284 283 283 283 283 282
307 311 306 305 308 309 307 309 311 311 313 321 319 318 310 306 302 300 298 298 296 295 293 292 290 287 284 284 284 285 285 285 285 285 285 284 284 283 283 282 282 282 282 282
306 308 306 305 299 298 306 311 309 315 310 305 305 316 295 294 296 300 298 296 295 294 292 290 288 285 284 283 284 284 284 284 284 284 284 284 283 282 282 282 282 281 281 281
305 306 305 304 304 302 305 304 307 303 306 307 313 316 294 291 290 292 298 295 293 292 290 287 285 284 283 282 282 283 283 283 283 283 283 283 282 282 282 282 281 281 281 281
305 305 309 312 307 304 305 306 304 308 310 310 312 309 304 298 295 292 294 294 293 292 289 288 285 284 281 281 281 281 281 281 281 283 283 282 282 282 281 281 281 281 281 281
305 308 302 297 297 300 302 303 304 307 309 310 309 304 307 302 297 294 294 292 290 289 287 286 286 285 281 280 280 280 280 280 281 281 282 282 282 282 281 281 281 281 281 281
302 304 299 299 296 299 302 302 303 305 308 304 294 300 298 289 286 291 292 291 291 290 289 287 285 282 280 279 279 279 279 279 280 280 280 281 281 281 281 281 281 281 282 282
303 301 304 305 296 300 305 301 303 304 305 305 306 307 297 295 291 295 294 291 292 290 288 286 283 282 279 278 279 278 278 279 279 279 279 279 279 279 280 280 280 281 281 281
302 303 302 299 298 308 298 285 291 302 300 304 298 296 298 297 290 288 287 291 289 287 285 283 281 280 278 278 277 277 278 278 278 277 277 277 277 278 278 278 279 279 279 279
298 300 297 304 304 301 295 292 295 300 303 298 299 298 291 285 289 291 285 284 287 284 282 280 278 277 277 277 276 277 277 277 277 276 276 276 275 276 276 277 277 278 278 279
296 296 301 298 304 306 297 291 286 290 301 289 286 293 288 289 300 301 284 282 280 278 277 277 276 276 276 276 276 277 277 276 276 275 274 274 274 274 275 276 276 277 277 277
299 297 300 299 302 300 292 289 288 299 299 287 282 284 288 294 292 286 283 281 279 278 277 277 276 276 275 275 275 276 275 275 273 273 273 273 273 274 274 275 275 275 276 276
298 300 299 296 300 301 289 289 297 295 287 286 282 281 286 282 282 284 281 279 279 278 278 277 277 277 275 274 275 275 274 273 272 272 273 273 274 274 274 274 274 275 275 276
299 296 298 297 299 292 288 292 288 285 290 288 287 282 284 282 282 282 281 280 280 279 278 277 277 276 274 273 273 274 272 272 272 273 273 273 273 273 273 274 274 275 276 276
292 290 295 296 294 293 291 288 286 284 288 287 286 285 284 285 284 282 281 280 280 278 277 275 275 274 274 272 272 272 271 272 272 272 272 272 272 273 273 273 273 275 276 276
292 291 292 294 294 292 291 290 290 286 284 285 284 284 285 284 283 282 281 279 279 277 275 274 274 274 273 272 272 272 272 272 271 271 271 271 272 272 272 272 272 273 274 275
291 292 294 295 292 292 293 290 289 288 286 285 284 283 282 283 282 281 280 278 277 276 274 273 273 273 273 272 272 272 272 271 271 270 271 271 271 271 271 271 272 273 273 274
Wind_Speed
9 10 20 24 22 18 12 16 17 9 7 9 16 17 17 15 13 14 13 12 11 9 5 2 1 0 3 7 14 18 20 18 17 13 10 8 8 8 7 7 9 8 8 7
7 23 23 13 19 21 14 14 15 4 6 7 8 16 15 16 19 21 19 16 13 11 9 6 3 3 4 8 13 16 17 17 15 11 9 6 6 6 6 7 8 8 8 8
20 20 18 16 15 17 22 23 18 14 3 4 7 21 18 14 17 14 12 14 12 14 12 9 8 6 8 10 13 15 15 15 13 12 11 8 6 6 6 7 8 8 9 8
15 19 9 20 22 18 19 16 15 11 4 11 2 12 14 11 13 12 13 14 14 14 11 10 10 9 9 10 11 12 13 13 12 12 9 8 8 9 7 7 7 8 8 9
14 13 22 11 20 18 11 3 8 11 14 9 12 6 9 6 10 15 16 15 15 14 13 11 10 10 10 10 10 11 11 11 10 11 9 8 9 9 8 8 9 9 9 9
7 1 14 16 14 13 14 8 5 3 4 7 13 14 21 12 8 6 16 18 16 14 11 9 9 9 10 9 9 10 10 10 10 10 10 10 10 10 9 9 9 8 9 8
5 5 4 3 6 5 9 11 4 5 6 7 6 12 25 2 5 5 16 19 16 14 11 10 10 10 10 10 10 9 10 10 10 10 10 10 10 10 10 10 9 8 9 9
13 7 13 9 9 10 21 13 6 9 7 5 5 12 8 1 3 1 3 12 15 13 10 10 8 8 8 8 8 9 9 9 9 10 11 10 11 10 10 9 9 9 9 10
11 9 11 19 6 12 7 9 2 6 2 2 6 7 12 8 4 5 11 17 15 13 10 9 7 7 7 7 7 6 7 7 8 10 9 10 11 12 10 10 10 11 11 10
6 6 11 6 5 0 6 12 4 4 7 6 7 7 8 8 11 11 14 17 14 12 10 8 7 7 5 4 4 5 7 9 10 10 10 11 11 14 15 15 15 14 13 13
4 3 6 11 10 14 7 6 5 4 3 6 4 5 2 2 13 16 15 14 14 13 11 9 7 6 4 3 2 4 6 8 9 10 11 12 13 14 15 16 14 14 13 13
7 2 5 7 2 2 6 5 8 6 6 2 2 5 1 0 1 11 12 11 12 11 9 7 7 5 4 3 1 1 2 4 7 9 12 13 14 15 14 16 15 14 13 11
6 5 5 4 2 2 7 6 6 5 1 8 7 5 1 1 2 5 10 10 11 10 9 6 4 4 4 3 2 1 2 3 5 6 9 11 13 14 14 15 15 14 13 12
7 5 4 8 3 5 8 16 14 11 5 7 12 3 1 3 7 9 9 10 10 9 8 6 5 5 4 2 1 1 2 5 6 6 7 10 12 13 14 14 15 14 14 14
6 5 3 2 1 1 4 14 18 17 13 12 6 12 2 5 9 9 8 9 8 8 8 8 6 5 4 2 1 3 4 5 6 7 7 8 10 12 13 15 15 14 15 15
2 1 2 2 1 2 3 8 17 19 16 8 1 5 4 2 2 8 11 11 10 9 9 8 6 4 4 3 3 3 4 5 5 5 6 6 7 8 11 13 15 15 15 16
7 7 5 3 0 1 5 12 17 14 14 13 15 11 4 3 7 10 12 12 11 9 8 8 6 5 4 3 2 3 4 4 3 3 4 4 5 6 7 9 11 14 15 15
5 6 2 2 3 6 1 1 2 12 6 14 3 3 7 3 2 1 2 11 9 8 7 6 6 6 4 2 1 2 2 2 3 3 4 5 6 7 8 9 10 11 12 13
2 3 4 4 4 3 4 2 4 6 3 5 12 8 3 2 3 2 3 2 8 8 6 7 7 5 4 2 1 0 2 2 3 4 5 7 7 8 8 9 9 9 9 11
5 6 2 1 2 2 2 2 1 1 3 3 2 3 7 8 7 3 8 7 8 9 8 8 6 5 4 2 1 1 2 2 3 5 6 7 7 8 8 8 8 7 8 11
2 2 2 1 0 3 1 3 2 3 2 3 2 3 10 6 1 5 11 6 8 8 9 7 6 5 4 2 1 2 1 2 5 6 7 6 6 8 7 8 8 8 7 8
0 2 2 2 1 3 5 4 1 2 1 1 3 3 5 4 8 9 6 8 8 8 7 6 6 5 3 1 1 1 1 4 5 6 6 6 6 6 6 8 7 7 6 7
1 1 1 3 1 2 4 2 1 2 0 3 2 5 7 8 6 9 8 8 7 8 8 5 5 6 3 1 1 1 2 5 6 6 6 6 6 6 6 6 7 6 5 5
1 0 1 2 1 3 3 3 3 3 2 2 1 7 8 6 9 7 8 8 8 8 7 5 5 5 4 1 0 0 2 5 6 6 6 6 6 7 6 5 5 5 5 5
2 0 2 3 1 2 2 3 3 5 3 3 3 4 7 7 9 9 8 8 8 9 7 6 4 4 3 2 1 3 3 5 5 5 5 5 5 6 7 6 5 5 5 6
4 3 2 1 3 3 2 4 3 4 6 7 6 6 5 7 9 8 7 8 9 9 7 6 4 2 2 2 4 5 5 5 5 5 5 5 5 6 6 7 7 5 5 6
Wind_Direction
187 205 219 215 216 228 267 239 241 231 181 211 226 242 239 217 216 219 219 215 213 208 187 214 269 248 166 174 178 179 176 178 179 179 179 201 213 219 234 247 260 263 260 264
176 224 226 241 218 224 226 237 231 247 165 215 253 254 244 242 232 230 225 216 203 183 184 180 161 149 165 159 166 171 174 175 180 186 193 197 198 220 230 244 255 254 260 263
202 222 204 195 204 215 232 236 241 243 165 241 288 273 241 237 237 229 228 213 194 188 179 175 168 152 145 152 161 166 171 175 184 192 201 209 228 243 244 244 243 246 254 262
229 241 219 208 210 196 229 220 237 232 213 248 225 278 235 211 220 215 205 190 183 181 181 176 172 169 165 161 162 167 173 179 187 197 201 214 235 247 249 246 247 250 257 260
214 200 205 202 216 200 230 29 229 229 236 268 224 256 249 167 230 222 203 194 185 180 178 175 177 176 179 178 178 180 183 189 199 208 211 220 237 249 253 256 257 256 259 254
207 196 197 214 206 204 146 113 93 113 176 224 219 212 268 215 207 211 191 186 176 171 172 173 175 176 181 182 187 193 195 201 205 213 222 228 240 247 251 255 259 258 257 252
172 176 161 177 129 126 161 144 153 189 201 235 159 197 246 308 193 190 185 179 172 169 172 173 176 178 181 188 195 198 205 213 216 223 231 235 241 246 254 257 257 256 255 248
197 200 167 174 198 178 188 183 182 209 199 193 153 222 243 270 88 116 156 155 159 167 171 176 177 184 189 194 201 208 216 225 226 232 234 234 241 245 252 253 251 253 251 246
191 219 186 171 156 151 168 214 107 107 13 184 202 260 273 191 166 163 160 159 168 171 172 171 166 175 179 187 196 207 220 229 228 229 233 238 245 247 248 250 254 254 250 248
202 195 190 140 122 177 197 137 147 180 172 220 217 263 247 204 192 170 170 171 170 167 165 161 158 163 168 183 201 219 226 229 232 237 242 245 248 254 257 259 256 249 249 251
199 175 139 149 208 176 155 177 186 162 197 213 246 241 214 227 183 176 177 172 168 169 166 159 156 150 144 148 184 228 240 242 241 243 247 251 254 256 258 258 254 254 252 248
188 101 153 185 1 309 227 213 179 197 187 253 5 271 92 63 219 175 167 164 164 162 157 155 151 147 148 156 164 240 282 283 267 253 251 251 257 254 253 257 256 254 250 243
172 164 126 123 123 179 210 188 209 74 93 194 185 248 43 77 205 192 164 163 164 158 156 155 153 163 171 182 189 233 324 320 307 279 257 253 250 253 253 255 257 253 249 245
181 182 219 220 127 136 194 191 181 187 196 165 227 320 245 171 184 179 176 167 163 165 165 162 171 178 175 182 226 318 322 313 308 306 273 254 251 253 256 255 255 253 251 249
194 222 150 73 115 152 192 184 186 203 202 197 187 207 184 191 197 185 164 163 167 177 186 192 186 179 182 203 268 313 315 313 308 300 295 275 256 252 255 258 258 254 253 253
182 170 108 137 342 253 218 203 202 215 213 231 170 265 181 93 63 174 183 175 186 193 194 196 197 191 204 244 279 304 318 324 322 309 301 300 284 261 255 260 264 262 258 257
173 149 175 203 98 154 266 214 201 210 213 216 224 230 135 226 215 205 189 186 188 182 182 179 185 181 183 237 271 301 323 339 334 328 331 328 317 298 282 268 264 266 267 263
160 140 90 132 179 216 67 188 309 223 234 216 225 188 219 216 111 266 194 185 184 171 166 160 168 167 170 199 284 330 349 3 328 331 327 316 311 298 291 283 273 272 268 264
19 135 119 185 212 298 148 153 170 182 268 249 231 202 162 90 123 221 161 210 160 158 141 145 159 167 153 139 351 347 34 22 334 336 332 321 317 306 301 291 287 281 276 271
60 61 70 161 190 219 29 25 112 19 295 351 300 229 165 151 190 157 148 138 121 123 142 150 163 157 128 108 349 125 56 8 339 330 325 322 314 307 302 297 296 289 283 281
63 36 104 134 323 288 329 101 137 122 9 345 270 263 173 183 355 118 131 112 127 136 145 151 153 145 148 127 103 100 111 5 327 324 326 324 320 312 301 300 300 300 297 288
115 127 131 108 148 274 138 121 229 23 131 244 213 196 162 106 124 128 116 130 137 137 149 165 158 149 140 109 105 104 35 332 331 333 334 330 330 322 307 310 309 311 306 296
166 326 308 231 33 25 200 322 115 152 300 207 198 176 150 139 156 152 149 151 151 158 166 162 160 146 142 86 65 91 338 333 339 343 338 335 335 333 328 313 314 327 321 313
207 155 313 332 12 267 233 233 253 198 228 200 177 155 167 157 158 156 154 159 157 162 165 170 159 150 157 199 213 271 327 338 343 339 331 328 338 336 334 328 328 327 317 317
15 99 335 282 322 265 235 295 304 213 212 166 141 159 171 160 172 169 171 168 161 158 158 168 167 168 174 222 285 318 314 327 329 324 314 318 322 331 331 336 327 314 301 295
351 3 359 351 3 321 346 343 353 203 210 198 161 148 149 170 164 168 166 164 157 154 161 167 175 184 234 276 280 281 284 293 310 310 309 313 321 324 326 331 327 309 288 298